Date String (YYYY-MM-DD hh:mm:ss) UTC,Instrument flags,absolute air pressure of the measurement (hPa),sample flow rate (lpm),inlet stack bypass flow (lpm),air temperature of the measurement (°C),ambient temperature measured by the external sensor (°C),aerosol sample conditioner tube jacket temperature (°C),OPC LED temperature (°C),internal box temperature (°C),relative humidity of the measurement (%),span deviation,mass concentration of particles derived from Lorenz-Mie calculation of OPC scattering (μg/m³),mass concentration of particles derived from Lorenz-Mie calculation of OPC scattering (μg/m³),mass concentration of particles derived from Lorenz-Mie calculation of OPC scattering (μg/m³)
DateTimeUTC,F1_M11,P_M11,Q1_M11,Q2_M11,T1_M11,T2_M11,T3_M11,T4_M11,T5_M11,U1_M11,ZSPAN_M11,X2_M11,X0_M11,X1_M11
2023-10-24 06:00:00,SystemResetWarning,0823.0,5.00,000.00,029.0,027.7,000.0,037.3,030.6,12.7,0000.0,0005.72,0015.89,0004.05
2023-10-24 06:01:00,SystemResetWarning,0822.9,5.00,000.00,029.0,027.7,000.0,037.3,030.6,12.5,0000.0,0005.73,0018.44,0004.04
2023-10-24 06:02:00,SystemResetWarning,0823.0,5.00,000.00,029.0,027.7,000.0,037.3,030.6,12.4,0000.0,0005.70,0019.49,0004.03
2023-10-24 06:03:00,SystemResetWarning,0823.0,4.99,000.00,029.0,027.7,000.0,037.4,030.6,12.4,0000.0,0005.75,0020.33,0004.02
2023-10-24 06:04:00,SystemResetWarning,0822.9,4.99,000.00,029.0,027.7,000.0,037.4,030.6,12.4,0000.0,0005.76,0020.71,0004.01
2023-10-24 06:05:00,SystemResetWarning,0822.8,5.00,000.00,029.0,027.1,000.0,037.4,030.6,12.5,0000.0,0005.77,0021.30,0004.01
2023-10-24 06:06:00,SystemResetWarning,0823.0,5.00,000.00,028.9,025.0,000.0,037.3,030.4,12.5,0000.0,0005.75,0022.19,0004.01
2023-10-24 06:07:00,SystemResetWarning,0822.8,5.00,000.00,028.9,024.3,000.0,037.2,030.3,12.5,0000.0,0005.72,0022.41,0004.02
2023-10-24 06:08:00,SystemResetWarning,0822.9,5.01,000.00,028.7,024.4,000.0,037.2,030.0,12.7,0000.0,0005.74,0022.87,0004.01
2023-10-24 06:09:00,SystemResetWarning,0822.8,4.99,000.00,028.6,024.7,000.0,037.2,029.9,12.8,0000.0,0005.83,0023.19,0004.02
2023-10-24 06:10:00,SystemResetWarning,0822.9,4.99,000.00,028.5,025.1,000.0,037.2,029.9,12.8,0000.0,0005.91,0023.90,0004.02
2023-10-24 06:11:00,SystemResetWarning,0822.9,5.01,000.00,028.5,025.5,000.0,037.1,029.9,12.7,0000.0,0005.89,0024.62,0004.02
2023-10-24 06:12:00,SystemResetWarning,0822.9,5.01,000.00,028.4,025.8,000.0,037.1,030.0,12.7,0000.0,0005.96,0023.78,0004.03
2023-10-24 06:13:00,SystemResetWarning,0823.1,5.01,000.00,028.4,026.1,000.0,037.1,030.0,12.7,0000.0,0006.03,0023.23,0004.06
2023-10-24 06:14:00,SystemResetWarning,0822.9,4.99,000.00,028.4,026.3,000.0,037.1,030.0,12.7,0000.0,0006.04,0022.93,0004.08
2023-10-24 06:15:00,SystemResetWarning,0822.9,5.00,000.00,028.4,026.5,000.0,037.1,030.0,12.7,0000.0,0006.04,0022.35,0004.10
2023-10-24 06:16:00,SystemResetWarning,0822.9,5.00,000.00,028.4,026.6,000.0,037.0,030.0,12.6,0000.0,0006.05,0021.64,0004.12
2023-10-24 06:17:00,SystemResetWarning,0822.8,5.00,000.00,028.5,026.7,000.0,037.0,030.1,12.6,0000.0,0006.10,0020.76,0004.14
2023-10-24 06:18:00,SystemResetWarning,0823.0,5.00,000.00,028.5,026.9,000.0,037.0,030.1,12.6,0000.0,0006.17,0020.45,0004.17
2023-10-24 06:19:00,SystemResetWarning,0822.9,5.00,000.00,028.5,026.9,000.0,037.0,030.1,12.5,0000.0,0006.21,0020.45,0004.19
2023-10-24 06:20:00,SystemResetWarning,0823.1,5.00,000.00,028.5,027.0,000.0,037.0,030.1,12.5,0000.0,0006.17,0020.72,0004.20
2023-10-24 06:21:00,SystemResetWarning,0822.9,5.00,000.00,028.5,027.1,000.0,037.0,030.2,12.5,0000.0,0006.11,0020.36,0004.22
2023-10-24 06:22:00,SystemResetWarning,0823.0,5.00,000.00,028.5,027.2,000.0,037.0,030.2,12.5,0000.0,0006.12,0018.77,0004.26
2023-10-24 06:23:00,SystemResetWarning,0823.0,5.00,000.00,028.6,027.2,000.0,037.0,030.2,12.5,0000.0,0006.04,0017.22,0004.29
2023-10-24 06:24:00,SystemResetWarning,0823.0,5.00,000.00,028.6,027.3,000.0,037.0,030.2,12.4,0000.0,0006.08,0017.12,0004.31
2023-10-24 06:25:00,SystemResetWarning,0823.0,5.00,000.00,028.6,027.3,000.0,037.0,030.2,12.4,0000.3,0006.11,0016.82,0004.32
2023-10-24 06:26:00,SystemResetWarning,0823.0,5.00,000.00,028.6,027.3,000.0,037.0,030.2,12.4,0000.0,0006.16,0017.44,0004.32
2023-10-24 06:27:00,SystemResetWarning,0823.0,5.00,000.00,028.6,027.3,000.0,037.0,030.3,12.4,0000.0,0006.15,0017.66,0004.33
2023-10-24 06:28:00,SystemResetWarning,0823.0,5.00,000.00,028.7,027.3,000.0,037.1,030.3,12.4,0000.6,0006.20,0018.50,0004.35
2023-10-24 06:29:00,SystemResetWarning,0823.0,5.00,000.00,028.7,027.4,000.0,037.1,030.3,12.5,0003.1,0006.22,0019.18,0004.36
2023-10-24 06:30:00,SystemResetWarning,0823.0,5.00,000.00,028.7,027.4,000.0,037.1,030.3,12.4,0003.0,0006.24,0019.47,0004.36
2023-10-24 06:31:00,SystemResetWarning,0823.0,5.00,000.00,028.7,027.4,000.0,037.1,030.3,12.3,0003.4,0006.24,0018.38,0004.37
2023-10-24 06:32:00,SystemResetWarning,0823.0,5.00,000.00,028.7,027.4,000.0,037.1,030.4,12.4,0003.6,0006.18,0018.51,0004.39
2023-10-24 06:33:00,SystemResetWarning,0823.0,5.00,000.00,028.7,027.4,000.0,037.1,030.4,12.3,0002.2,0006.14,0017.55,0004.38
2023-10-24 06:34:00,SystemResetWarning,0823.0,5.00,000.00,028.7,027.4,000.0,037.1,030.4,12.2,0000.0,0006.16,0017.89,0004.38
2023-10-24 06:35:00,SystemResetWarning,0823.0,5.00,000.00,028.8,027.5,000.0,037.2,030.4,12.1,0000.0,0006.10,0018.40,0004.36
2023-10-24 06:36:00,SystemResetWarning,0823.0,5.00,000.00,028.8,027.5,000.0,037.2,030.4,12.1,0000.0,0006.10,0019.11,0004.37
2023-10-24 06:37:00,SystemResetWarning,0823.0,5.00,000.00,028.8,027.5,000.0,037.2,030.4,12.1,0000.0,0006.03,0018.90,0004.38
2023-10-24 06:38:00,SystemResetWarning,0822.9,5.00,000.00,028.8,027.5,000.0,037.2,030.4,12.1,0000.0,0006.09,0018.95,0004.39
2023-10-24 06:39:00,SystemResetWarning,0822.9,5.00,000.00,028.8,027.5,000.0,037.2,030.4,12.2,0001.4,0006.05,0018.39,0004.38
2023-10-24 06:40:00,SystemResetWarning,0822.9,4.99,000.00,028.8,027.5,000.0,037.2,030.4,12.4,0000.0,0005.98,0019.09,0004.39
2023-10-24 06:41:00,SystemResetWarning,0823.0,5.00,000.00,028.9,027.5,000.0,037.2,030.5,12.5,0001.8,0005.89,0019.71,0004.40
2023-10-24 06:42:00,SystemResetWarning,0823.0,5.01,000.00,028.9,027.6,000.0,037.2,030.5,12.5,0003.2,0005.90,0019.69,0004.41
2023-10-24 06:43:00,SystemResetWarning,0823.0,5.01,000.00,028.9,027.6,000.0,037.3,030.5,12.4,0002.3,0005.95,0019.36,0004.42
2023-10-24 06:44:00,SystemResetWarning,0823.0,5.00,000.00,028.9,027.6,000.0,037.3,030.5,12.2,0002.2,0005.98,0020.57,0004.45
2023-10-24 06:45:00,SystemResetWarning,0823.0,5.01,000.00,028.9,027.6,000.0,037.3,030.5,12.0,0001.6,0006.00,0021.06,0004.47
2023-10-24 06:46:00,SystemResetWarning,0823.1,4.99,000.00,028.9,027.6,000.0,037.3,030.5,12.1,0001.8,0006.10,0021.12,0004.50
2023-10-24 06:47:00,SystemResetWarning,0823.1,4.99,000.00,028.9,027.6,000.0,037.3,030.5,12.2,0001.9,0006.15,0020.93,0004.51
2023-10-24 06:48:00,SystemResetWarning,0823.1,5.00,000.00,028.9,027.6,000.0,037.3,030.5,12.1,0001.4,0006.17,0021.53,0004.53
2023-10-24 06:49:00,SystemResetWarning,0823.1,5.00,000.00,028.9,027.6,000.0,037.3,030.6,12.0,0000.9,0006.13,0021.85,0004.54
2023-10-24 06:50:00,SystemResetWarning,0823.1,5.00,000.00,028.9,027.6,000.0,037.3,030.6,12.1,0001.1,0006.13,0021.76,0004.57
2023-10-24 06:51:00,SystemResetWarning,0823.0,5.00,000.00,029.0,027.6,000.0,037.3,030.6,12.0,0000.9,0006.19,0020.35,0004.57
2023-10-24 06:52:00,SystemResetWarning,0823.0,5.00,000.00,029.0,027.6,000.0,037.3,030.6,12.0,0000.0,0006.29,0019.44,0004.59
2023-10-24 06:53:00,SystemResetWarning,0823.0,5.00,000.00,029.0,027.6,000.0,037.4,030.6,12.0,0000.0,0006.28,0019.92,0004.61
2023-10-24 06:54:00,SystemResetWarning,0823.0,5.01,000.00,029.0,027.6,000.0,037.4,030.6,12.0,0000.0,0006.27,0020.65,0004.62
2023-10-24 06:55:00,SystemResetWarning,0823.1,5.00,000.00,029.0,027.6,000.0,037.4,030.6,12.0,0000.0,0006.27,0020.90,0004.61
2023-10-24 06:56:00,SystemResetWarning,0823.1,4.99,000.00,029.0,027.6,000.0,037.4,030.6,11.9,0000.0,0006.34,0020.68,0004.60
2023-10-24 06:57:00,SystemResetWarning,0823.1,5.00,000.00,029.0,027.6,000.0,037.4,030.6,11.9,0000.0,0006.25,0020.15,0004.58
2023-10-24 06:58:00,SystemResetWarning,0823.1,5.00,000.00,029.0,027.6,000.0,037.4,030.6,11.8,0000.0,0006.22,0019.30,0004.57
2023-10-24 06:59:00,SystemResetWarning,0823.1,5.00,000.00,029.0,027.6,000.0,037.4,030.6,11.8,0000.0,0006.22,0018.60,0004.58
